contact:dominique.lefevre@mio.osupytheas.fr, maurice.libes@osupytheas.fr, didier.mallarino@osupytheas.fr
Project:EMSO http://www.emso-fr.org/EMSO-France
Depth: 2436.0 m
Title:EMSO Ligure Ouest : Data MII capteur CSTAR
DateTime,Latitude,Longitude,Instrument_Serial,Reference_Counts,Signal_Counts,Corrected_Signal_raw_counts,Calculated_Beam_c_inverse_meters,Internal_thermistor_counts
DateTime,Latitude,Longitude,Instrument_Serial,Reference_Counts,Signal_Counts,Corrected_Signal_raw_counts,Calculated_Beam_c_inverse_meters,Internal_thermistor_counts
2022-03-11T00:00:47,42.805,6.029,CST-1368DR,4855,5804,12758,0.809,551
2022-03-11T00:03:49,42.805,6.029,CST-1368DR,4855,5805,12761,0.808,551
2022-03-11T00:06:50,42.805,6.029,CST-1368DR,4855,5802,12754,0.810,551
2022-03-11T00:09:52,42.805,6.029,CST-1368DR,4855,5803,12756,0.809,551
2022-03-11T00:12:53,42.805,6.029,CST-1368DR,4855,5808,12767,0.806,551
2022-03-11T00:15:55,42.805,6.029,CST-1368DR,4855,5800,12751,0.811,551
2022-03-11T00:18:57,42.805,6.029,CST-1368DR,4855,5805,12760,0.808,551
2022-03-11T00:21:58,42.805,6.029,CST-1368DR,4855,5803,12757,0.809,551
2022-03-11T00:25:00,42.805,6.029,CST-1368DR,4855,5802,12754,0.810,551
2022-03-11T00:28:01,42.805,6.029,CST-1368DR,4855,5801,12753,0.810,551
2022-03-11T00:31:03,42.805,6.029,CST-1368DR,4855,5803,12757,0.809,551
2022-03-11T00:34:05,42.805,6.029,CST-1368DR,4855,5795,12740,0.814,551
2022-03-11T00:37:06,42.805,6.029,CST-1368DR,4855,5797,12743,0.813,551
2022-03-11T00:40:08,42.805,6.029,CST-1368DR,4855,5802,12755,0.809,551
2022-03-11T00:43:09,42.805,6.029,CST-1368DR,4855,5799,12748,0.812,551
2022-03-11T00:46:11,42.805,6.029,CST-1368DR,4855,5794,12737,0.815,551
2022-03-11T00:49:12,42.805,6.029,CST-1368DR,4855,5793,12736,0.815,551
2022-03-11T00:52:14,42.805,6.029,CST-1368DR,4855,5802,12754,0.810,551
2022-03-11T00:55:16,42.805,6.029,CST-1368DR,4855,5801,12752,0.810,551
2022-03-11T00:58:17,42.805,6.029,CST-1368DR,4855,5802,12755,0.809,551
2022-03-11T01:01:19,42.805,6.029,CST-1368DR,4855,5795,12738,0.815,551
2022-03-11T01:04:20,42.805,6.029,CST-1368DR,4855,5798,12747,0.812,551
2022-03-11T01:07:22,42.805,6.029,CST-1368DR,4855,5797,12743,0.813,551
2022-03-11T01:10:23,42.805,6.029,CST-1368DR,4855,5792,12733,0.816,551
2022-03-11T01:13:25,42.805,6.029,CST-1368DR,4855,5804,12759,0.808,551
2022-03-11T01:16:27,42.805,6.029,CST-1368DR,4855,5805,12761,0.808,551
2022-03-11T01:19:28,42.805,6.029,CST-1368DR,4855,5796,12741,0.814,551
2022-03-11T01:22:30,42.805,6.029,CST-1368DR,4855,5799,12749,0.811,551
2022-03-11T01:25:31,42.805,6.029,CST-1368DR,4855,5801,12752,0.810,551
2022-03-11T01:28:33,42.805,6.029,CST-1368DR,4855,5803,12756,0.809,551
2022-03-11T01:31:35,42.805,6.029,CST-1368DR,4855,5803,12757,0.809,551
2022-03-11T01:34:36,42.805,6.029,CST-1368DR,4855,5798,12746,0.812,551
2022-03-11T01:37:38,42.805,6.029,CST-1368DR,4855,5802,12755,0.809,551
2022-03-11T01:40:39,42.805,6.029,CST-1368DR,4855,5798,12747,0.812,551
2022-03-11T01:43:41,42.805,6.029,CST-1368DR,4855,5800,12750,0.811,551
2022-03-11T01:46:42,42.805,6.029,CST-1368DR,4855,5802,12755,0.809,551
2022-03-11T01:49:44,42.805,6.029,CST-1368DR,4855,5806,12763,0.807,551
2022-03-11T01:52:46,42.805,6.029,CST-1368DR,4855,5801,12752,0.810,550
2022-03-11T01:55:47,42.805,6.029,CST-1368DR,4855,5792,12732,0.817,551
2022-03-11T01:58:49,42.805,6.029,CST-1368DR,4855,5799,12748,0.812,551
2022-03-11T02:01:50,42.805,6.029,CST-1368DR,4855,5797,12743,0.813,551
2022-03-11T02:04:52,42.805,6.029,CST-1368DR,4855,5802,12755,0.809,551
2022-03-11T02:07:54,42.805,6.029,CST-1368DR,4855,5796,12741,0.814,550
2022-03-11T02:10:55,42.805,6.029,CST-1368DR,4855,5787,12721,0.820,551
2022-03-11T02:13:57,42.805,6.029,CST-1368DR,4855,5793,12735,0.816,551
2022-03-11T02:16:58,42.805,6.029,CST-1368DR,4855,5804,12759,0.808,551
2022-03-11T02:20:00,42.805,6.029,CST-1368DR,4855,5804,12759,0.808,551
2022-03-11T02:23:01,42.805,6.029,CST-1368DR,4855,5799,12749,0.811,551
2022-03-11T02:26:03,42.805,6.029,CST-1368DR,4855,5799,12749,0.811,551
2022-03-11T02:29:05,42.805,6.029,CST-1368DR,4855,5792,12733,0.816,551
2022-03-11T02:32:06,42.805,6.029,CST-1368DR,4855,5791,12730,0.817,551
2022-03-11T02:35:08,42.805,6.029,CST-1368DR,4855,5794,12736,0.815,551
2022-03-11T02:38:09,42.805,6.029,CST-1368DR,4855,5796,12741,0.814,551
2022-03-11T02:41:11,42.805,6.029,CST-1368DR,4855,5800,12750,0.811,551
2022-03-11T02:44:12,42.805,6.029,CST-1368DR,4855,5801,12752,0.810,551
2022-03-11T02:47:14,42.805,6.029,CST-1368DR,4855,5799,12748,0.812,551
2022-03-11T02:50:16,42.805,6.029,CST-1368DR,4855,5801,12752,0.810,551
2022-03-11T02:53:17,42.805,6.029,CST-1368DR,4855,5797,12744,0.813,551
2022-03-11T02:56:19,42.805,6.029,CST-1368DR,4855,5795,12739,0.815,551
2022-03-11T02:59:20,42.805,6.029,CST-1368DR,4855,5798,12747,0.812,551
2022-03-11T03:02:22,42.805,6.029,CST-1368DR,4855,5804,12758,0.809,551
2022-03-11T03:05:24,42.805,6.029,CST-1368DR,4855,5787,12722,0.820,551
2022-03-11T03:08:25,42.805,6.029,CST-1368DR,4855,5797,12744,0.813,551
2022-03-11T03:11:27,42.805,6.029,CST-1368DR,4855,5787,12721,0.820,551
2022-03-11T03:14:28,42.805,6.029,CST-1368DR,4855,5795,12739,0.815,551
2022-03-11T03:17:30,42.805,6.029,CST-1368DR,4855,5797,12744,0.813,551
2022-03-11T03:20:31,42.805,6.029,CST-1368DR,4855,5797,12744,0.813,551
2022-03-11T03:23:33,42.805,6.029,CST-1368DR,4855,5789,12727,0.818,551
2022-03-11T03:26:35,42.805,6.029,CST-1368DR,4855,5793,12735,0.816,551
2022-03-11T03:29:36,42.805,6.029,CST-1368DR,4855,5799,12749,0.811,551
2022-03-11T03:32:38,42.805,6.029,CST-1368DR,4855,5800,12750,0.811,551
2022-03-11T03:35:39,42.805,6.029,CST-1368DR,4855,5796,12742,0.814,551
2022-03-11T03:38:41,42.805,6.029,CST-1368DR,4855,5797,12744,0.813,551
2022-03-11T03:41:42,42.805,6.029,CST-1368DR,4855,5791,12730,0.817,551
2022-03-11T03:44:44,42.805,6.029,CST-1368DR,4855,5796,12741,0.814,551
2022-03-11T03:47:46,42.805,6.029,CST-1368DR,4855,5799,12747,0.812,551
2022-03-11T03:50:47,42.805,6.029,CST-1368DR,4855,5790,12727,0.818,551
2022-03-11T03:53:49,42.805,6.029,CST-1368DR,4855,5799,12747,0.812,551
2022-03-11T03:56:50,42.805,6.029,CST-1368DR,4855,5801,12752,0.810,551
2022-03-11T03:59:52,42.805,6.029,CST-1368DR,4855,5792,12733,0.816,551
2022-03-11T04:02:54,42.805,6.029,CST-1368DR,4855,5795,12739,0.815,551
2022-03-11T04:05:55,42.805,6.029,CST-1368DR,4855,5796,12742,0.814,551
2022-03-11T04:08:57,42.805,6.029,CST-1368DR,4855,5796,12741,0.814,551
2022-03-11T04:11:58,42.805,6.029,CST-1368DR,4854,5783,12715,0.822,551
2022-03-11T04:15:00,42.805,6.029,CST-1368DR,4854,5786,12722,0.820,551
2022-03-11T04:18:01,42.805,6.029,CST-1368DR,4854,5783,12716,0.822,551
2022-03-11T04:21:03,42.805,6.029,CST-1368DR,4855,5798,12747,0.812,551
2022-03-11T04:24:05,42.805,6.029,CST-1368DR,4855,5801,12752,0.810,551
2022-03-11T04:27:06,42.805,6.029,CST-1368DR,4855,5802,12754,0.810,551
2022-03-11T04:30:08,42.805,6.029,CST-1368DR,4855,5800,12749,0.811,550
2022-03-11T04:33:09,42.805,6.029,CST-1368DR,4855,5793,12735,0.816,551
2022-03-11T04:36:11,42.805,6.029,CST-1368DR,4855,5795,12738,0.815,551
2022-03-11T04:39:13,42.805,6.029,CST-1368DR,4855,5794,12737,0.815,551
2022-03-11T04:42:14,42.805,6.029,CST-1368DR,4855,5794,12737,0.815,551
2022-03-11T04:45:16,42.805,6.029,CST-1368DR,4855,5792,12733,0.816,551
2022-03-11T04:48:17,42.805,6.029,CST-1368DR,4855,5789,12726,0.819,551
2022-03-11T04:51:19,42.805,6.029,CST-1368DR,4855,5798,12746,0.812,551
2022-03-11T04:54:20,42.805,6.029,CST-1368DR,4855,5790,12729,0.818,551
2022-03-11T04:57:22,42.805,6.029,CST-1368DR,4855,5798,12746,0.812,551
2022-03-11T05:00:24,42.805,6.029,CST-1368DR,4855,5795,12739,0.815,551
2022-03-11T05:03:25,42.805,6.029,CST-1368DR,4855,5794,12737,0.815,551
2022-03-11T05:06:27,42.805,6.029,CST-1368DR,4855,5796,12741,0.814,551
2022-03-11T05:09:28,42.805,6.029,CST-1368DR,4854,5796,12745,0.813,551
2022-03-11T05:12:30,42.805,6.029,CST-1368DR,4855,5799,12748,0.812,551
2022-03-11T05:15:31,42.805,6.029,CST-1368DR,4854,5794,12739,0.815,551
2022-03-11T05:18:33,42.805,6.029,CST-1368DR,4855,5795,12738,0.815,551
2022-03-11T05:21:35,42.805,6.029,CST-1368DR,4855,5793,12734,0.816,551
2022-03-11T05:24:36,42.805,6.029,CST-1368DR,4855,5800,12751,0.811,551
2022-03-11T05:27:38,42.805,6.029,CST-1368DR,4854,5789,12729,0.818,551
2022-03-11T05:30:39,42.805,6.029,CST-1368DR,4854,5796,12743,0.813,551
2022-03-11T05:33:41,42.805,6.029,CST-1368DR,4855,5803,12757,0.809,551
2022-03-11T05:36:43,42.805,6.029,CST-1368DR,4854,5792,12735,0.816,551
2022-03-11T05:39:44,42.805,6.029,CST-1368DR,4855,5801,12752,0.810,551
2022-03-11T05:42:46,42.805,6.029,CST-1368DR,4854,5802,12757,0.809,551
2022-03-11T05:45:47,42.805,6.029,CST-1368DR,4854,5786,12721,0.820,551
2022-03-11T05:48:49,42.805,6.029,CST-1368DR,4854,5790,12730,0.817,551
2022-03-11T05:51:50,42.805,6.029,CST-1368DR,4854,5790,12731,0.817,551
2022-03-11T05:54:52,42.805,6.029,CST-1368DR,4854,5793,12738,0.815,551
2022-03-11T05:57:54,42.805,6.029,CST-1368DR,4855,5799,12749,0.811,551
2022-03-11T06:00:55,42.805,6.029,CST-1368DR,4854,5794,12740,0.814,551
2022-03-11T06:03:57,42.805,6.029,CST-1368DR,4854,5797,12746,0.812,551
2022-03-11T06:06:58,42.805,6.029,CST-1368DR,4855,5805,12761,0.808,551
2022-03-11T06:10:00,42.805,6.029,CST-1368DR,4854,5803,12760,0.808,551
2022-03-11T06:13:01,42.805,6.029,CST-1368DR,4854,5800,12752,0.810,551
2022-03-11T06:16:03,42.805,6.029,CST-1368DR,4854,5799,12751,0.811,551
2022-03-11T06:19:05,42.805,6.029,CST-1368DR,4854,5806,12765,0.806,551
2022-03-11T06:22:06,42.805,6.029,CST-1368DR,4854,5804,12762,0.807,551
2022-03-11T06:25:08,42.805,6.029,CST-1368DR,4854,5798,12749,0.811,551
2022-03-11T06:28:09,42.805,6.029,CST-1368DR,4854,5806,12766,0.806,551
2022-03-11T06:31:11,42.805,6.029,CST-1368DR,4854,5799,12750,0.811,551
2022-03-11T06:34:13,42.805,6.029,CST-1368DR,4854,5805,12763,0.807,551
2022-03-11T06:37:14,42.805,6.029,CST-1368DR,4854,5812,12778,0.802,551
2022-03-11T06:40:16,42.805,6.029,CST-1368DR,4854,5798,12749,0.811,551
2022-03-11T06:43:17,42.805,6.029,CST-1368DR,4854,5805,12765,0.806,551
2022-03-11T06:46:19,42.805,6.029,CST-1368DR,4854,5800,12754,0.810,551
2022-03-11T06:49:20,42.805,6.029,CST-1368DR,4854,5803,12760,0.808,551
2022-03-11T06:52:22,42.805,6.029,CST-1368DR,4854,5799,12750,0.811,551
2022-03-11T06:55:24,42.805,6.029,CST-1368DR,4854,5798,12749,0.811,551
2022-03-11T06:58:25,42.805,6.029,CST-1368DR,4854,5804,12761,0.808,551
2022-03-11T07:01:27,42.805,6.029,CST-1368DR,4854,5809,12773,0.804,551
2022-03-11T07:04:28,42.805,6.029,CST-1368DR,4854,5806,12767,0.806,551
2022-03-11T07:07:30,42.805,6.029,CST-1368DR,4854,5800,12754,0.810,551
2022-03-11T07:10:31,42.805,6.029,CST-1368DR,4854,5800,12752,0.810,551
2022-03-11T07:13:33,42.805,6.029,CST-1368DR,4854,5808,12771,0.804,551
2022-03-11T07:16:35,42.805,6.029,CST-1368DR,4854,5802,12757,0.809,551
2022-03-11T07:19:36,42.805,6.029,CST-1368DR,4854,5800,12752,0.810,551
2022-03-11T07:22:38,42.805,6.029,CST-1368DR,4854,5804,12762,0.807,551
2022-03-11T07:25:39,42.805,6.029,CST-1368DR,4854,5813,12782,0.801,551
2022-03-11T07:28:41,42.805,6.029,CST-1368DR,4854,5812,12779,0.802,551
2022-03-11T07:31:43,42.805,6.029,CST-1368DR,4854,5800,12753,0.810,551
2022-03-11T07:34:44,42.805,6.029,CST-1368DR,4854,5809,12773,0.804,551
2022-03-11T07:37:46,42.805,6.029,CST-1368DR,4854,5803,12760,0.808,551
2022-03-11T07:40:47,42.805,6.029,CST-1368DR,4854,5804,12761,0.808,551
2022-03-11T07:43:49,42.805,6.029,CST-1368DR,4854,5804,12762,0.807,551
2022-03-11T07:46:50,42.805,6.029,CST-1368DR,4854,5812,12778,0.802,551
2022-03-11T07:49:52,42.805,6.029,CST-1368DR,4854,5803,12760,0.808,551
2022-03-11T07:52:54,42.805,6.029,CST-1368DR,4854,5795,12743,0.813,551
2022-03-11T07:55:55,42.805,6.029,CST-1368DR,4854,5780,12710,0.824,551
2022-03-11T07:58:57,42.805,6.029,CST-1368DR,4854,5794,12740,0.814,551
2022-03-11T08:01:58,42.805,6.029,CST-1368DR,4854,5812,12778,0.802,551
2022-03-11T08:05:00,42.805,6.029,CST-1368DR,4854,5798,12748,0.812,551
2022-03-11T08:08:02,42.805,6.029,CST-1368DR,4854,5800,12752,0.810,551
2022-03-11T08:11:03,42.805,6.029,CST-1368DR,4854,5800,12752,0.810,551
2022-03-11T08:14:05,42.805,6.029,CST-1368DR,4854,5806,12765,0.806,551
2022-03-11T08:17:06,42.805,6.029,CST-1368DR,4854,5802,12756,0.809,551
2022-03-11T08:20:08,42.805,6.029,CST-1368DR,4854,5808,12771,0.804,551
2022-03-11T08:23:09,42.805,6.029,CST-1368DR,4854,5797,12745,0.813,551
2022-03-11T08:26:11,42.805,6.029,CST-1368DR,4854,5803,12758,0.809,551
2022-03-11T08:29:13,42.805,6.029,CST-1368DR,4854,5813,12780,0.802,551
2022-03-11T08:32:14,42.805,6.029,CST-1368DR,4854,5819,12794,0.797,551
2022-03-11T08:35:16,42.805,6.029,CST-1368DR,4854,5824,12806,0.794,551
2022-03-11T08:38:17,42.805,6.029,CST-1368DR,4854,5812,12779,0.802,551
2022-03-11T08:41:19,42.805,6.029,CST-1368DR,4854,5808,12771,0.804,551
2022-03-11T08:44:20,42.805,6.029,CST-1368DR,4854,5819,12795,0.797,551
2022-03-11T08:47:22,42.805,6.029,CST-1368DR,4854,5819,12794,0.797,551
2022-03-11T08:50:24,42.805,6.029,CST-1368DR,4854,5807,12767,0.806,550
2022-03-11T08:53:25,42.805,6.029,CST-1368DR,4854,5802,12757,0.809,551
2022-03-11T08:56:27,42.805,6.029,CST-1368DR,4854,5812,12779,0.802,551
2022-03-11T08:59:28,42.805,6.029,CST-1368DR,4854,5818,12793,0.798,551
2022-03-11T09:02:30,42.805,6.029,CST-1368DR,4854,5802,12756,0.809,551
2022-03-11T09:05:32,42.805,6.029,CST-1368DR,4854,5824,12806,0.794,551
2022-03-11T09:08:33,42.805,6.029,CST-1368DR,4854,5803,12760,0.808,551
2022-03-11T09:11:35,42.805,6.029,CST-1368DR,4854,5810,12774,0.804,551
2022-03-11T09:14:36,42.805,6.029,CST-1368DR,4854,5816,12788,0.799,551
2022-03-11T09:17:38,42.805,6.029,CST-1368DR,4854,5820,12797,0.796,551
2022-03-11T09:20:39,42.805,6.029,CST-1368DR,4854,5803,12759,0.808,551
2022-03-11T09:23:41,42.805,6.029,CST-1368DR,4854,5807,12769,0.805,551
2022-03-11T09:26:43,42.805,6.029,CST-1368DR,4854,5803,12760,0.808,551
2022-03-11T09:29:44,42.805,6.029,CST-1368DR,4854,5805,12764,0.807,551
2022-03-11T09:32:46,42.805,6.029,CST-1368DR,4854,5804,12761,0.808,551
2022-03-11T09:35:47,42.805,6.029,CST-1368DR,4854,5810,12774,0.804,551
2022-03-11T09:38:49,42.805,6.029,CST-1368DR,4854,5814,12783,0.801,551
2022-03-11T09:41:51,42.805,6.029,CST-1368DR,4854,5824,12806,0.794,551
2022-03-11T09:44:52,42.805,6.029,CST-1368DR,4854,5811,12776,0.803,551
2022-03-11T09:47:54,42.805,6.029,CST-1368DR,4854,5819,12795,0.797,551
2022-03-11T09:50:55,42.805,6.029,CST-1368DR,4854,5815,12785,0.800,551
2022-03-11T09:53:57,42.805,6.029,CST-1368DR,4854,5801,12754,0.810,551
2022-03-11T09:56:58,42.805,6.029,CST-1368DR,4854,5813,12782,0.801,551
2022-03-11T10:00:00,42.805,6.029,CST-1368DR,4854,5815,12785,0.800,551
2022-03-11T10:03:02,42.805,6.029,CST-1368DR,4854,5804,12762,0.807,551
2022-03-11T10:06:03,42.805,6.029,CST-1368DR,4854,5816,12789,0.799,551
2022-03-11T10:09:05,42.805,6.029,CST-1368DR,4854,5821,12799,0.796,551
2022-03-11T10:12:06,42.805,6.029,CST-1368DR,4854,5815,12786,0.800,551
2022-03-11T10:15:08,42.805,6.029,CST-1368DR,4854,5817,12791,0.798,551
2022-03-11T10:18:09,42.805,6.029,CST-1368DR,4854,5826,12809,0.793,551
2022-03-11T10:21:11,42.805,6.029,CST-1368DR,4854,5808,12771,0.804,551
2022-03-11T10:24:13,42.805,6.029,CST-1368DR,4854,5807,12769,0.805,551
2022-03-11T10:27:14,42.805,6.029,CST-1368DR,4854,5808,12771,0.804,551
2022-03-11T10:30:16,42.805,6.029,CST-1368DR,4854,5809,12772,0.804,551
2022-03-11T10:33:17,42.805,6.029,CST-1368DR,4854,5814,12783,0.801,551
2022-03-11T10:36:19,42.805,6.029,CST-1368DR,4854,5816,12788,0.799,551
2022-03-11T10:39:21,42.805,6.029,CST-1368DR,4854,5807,12768,0.805,551
2022-03-11T10:42:22,42.805,6.029,CST-1368DR,4854,5812,12779,0.802,551
2022-03-11T10:45:24,42.805,6.029,CST-1368DR,4854,5826,12809,0.793,551
2022-03-11T10:48:25,42.805,6.029,CST-1368DR,4854,5812,12780,0.802,551
2022-03-11T10:51:27,42.805,6.029,CST-1368DR,4854,5816,12789,0.799,551
2022-03-11T10:54:28,42.805,6.029,CST-1368DR,4854,5808,12771,0.804,551
2022-03-11T10:57:30,42.805,6.029,CST-1368DR,4854,5810,12775,0.803,551
2022-03-11T11:00:32,42.805,6.029,CST-1368DR,4854,5807,12768,0.805,551
2022-03-11T11:03:33,42.805,6.029,CST-1368DR,4854,5817,12790,0.799,551
2022-03-11T11:06:35,42.805,6.029,CST-1368DR,4854,5823,12803,0.794,551
2022-03-11T11:09:36,42.805,6.029,CST-1368DR,4854,5803,12760,0.808,551
2022-03-11T11:12:38,42.805,6.029,CST-1368DR,4854,5799,12751,0.811,551
2022-03-11T11:15:40,42.805,6.029,CST-1368DR,4854,5806,12766,0.806,551
2022-03-11T11:18:41,42.805,6.029,CST-1368DR,4854,5814,12784,0.800,551
2022-03-11T11:21:43,42.805,6.029,CST-1368DR,4854,5809,12772,0.804,551
2022-03-11T11:24:44,42.805,6.029,CST-1368DR,4854,5805,12763,0.807,551
2022-03-11T11:27:46,42.805,6.029,CST-1368DR,4854,5812,12779,0.802,551
2022-03-11T11:30:47,42.805,6.029,CST-1368DR,4854,5803,12760,0.808,551
2022-03-11T11:33:49,42.805,6.029,CST-1368DR,4854,5806,12767,0.806,551
2022-03-11T11:36:51,42.805,6.029,CST-1368DR,4854,5809,12772,0.804,551
2022-03-11T11:39:52,42.805,6.029,CST-1368DR,4854,5802,12758,0.809,551
2022-03-11T11:42:54,42.805,6.029,CST-1368DR,4854,5806,12765,0.806,551
2022-03-11T11:45:55,42.805,6.029,CST-1368DR,4854,5805,12764,0.807,551
2022-03-11T11:48:57,42.805,6.029,CST-1368DR,4854,5805,12763,0.807,551
2022-03-11T11:51:58,42.805,6.029,CST-1368DR,4854,5811,12778,0.802,551
2022-03-11T11:55:00,42.805,6.029,CST-1368DR,4854,5808,12771,0.804,551
2022-03-11T11:58:02,42.805,6.029,CST-1368DR,4854,5805,12764,0.807,551
2022-03-11T12:01:03,42.805,6.029,CST-1368DR,4854,5804,12761,0.808,551
2022-03-11T12:04:05,42.805,6.029,CST-1368DR,4854,5808,12771,0.804,551
2022-03-11T12:07:06,42.805,6.029,CST-1368DR,4854,5805,12764,0.807,551
2022-03-11T12:10:08,42.805,6.029,CST-1368DR,4854,5808,12771,0.804,551
2022-03-11T12:13:10,42.805,6.029,CST-1368DR,4854,5807,12768,0.805,551
2022-03-11T12:16:11,42.805,6.029,CST-1368DR,4854,5813,12781,0.801,550
2022-03-11T12:19:13,42.805,6.029,CST-1368DR,4854,5808,12769,0.805,551
2022-03-11T12:22:14,42.805,6.029,CST-1368DR,4854,5809,12773,0.804,551
2022-03-11T12:25:16,42.805,6.029,CST-1368DR,4854,5813,12782,0.801,551
2022-03-11T12:28:17,42.805,6.029,CST-1368DR,4854,5812,12779,0.802,551
2022-03-11T12:31:19,42.805,6.029,CST-1368DR,4854,5813,12780,0.802,551
2022-03-11T12:34:21,42.805,6.029,CST-1368DR,4854,5813,12781,0.801,551
2022-03-11T12:37:22,42.805,6.029,CST-1368DR,4854,5808,12769,0.805,551
2022-03-11T12:40:24,42.805,6.029,CST-1368DR,4854,5805,12763,0.807,551
2022-03-11T12:43:25,42.805,6.029,CST-1368DR,4854,5808,12769,0.805,551
2022-03-11T12:46:27,42.805,6.029,CST-1368DR,4854,5813,12782,0.801,551
2022-03-11T12:49:29,42.805,6.029,CST-1368DR,4854,5803,12760,0.808,551
2022-03-11T12:52:30,42.805,6.029,CST-1368DR,4854,5808,12771,0.804,551
2022-03-11T12:55:32,42.805,6.029,CST-1368DR,4854,5811,12777,0.803,551
2022-03-11T12:58:33,42.805,6.029,CST-1368DR,4854,5809,12772,0.804,551
2022-03-11T13:01:35,42.805,6.029,CST-1368DR,4854,5805,12763,0.807,551
2022-03-11T13:04:36,42.805,6.029,CST-1368DR,4854,5812,12779,0.802,551
2022-03-11T13:07:38,42.805,6.029,CST-1368DR,4854,5807,12768,0.805,551
2022-03-11T13:10:40,42.805,6.029,CST-1368DR,4854,5806,12767,0.806,551
2022-03-11T13:13:41,42.805,6.029,CST-1368DR,4854,5796,12744,0.813,551
2022-03-11T13:16:43,42.805,6.029,CST-1368DR,4854,5805,12763,0.807,551
2022-03-11T13:19:44,42.805,6.029,CST-1368DR,4854,5806,12766,0.806,551
2022-03-11T13:22:46,42.805,6.029,CST-1368DR,4854,5808,12771,0.804,551
2022-03-11T13:25:47,42.805,6.029,CST-1368DR,4854,5805,12763,0.807,551
2022-03-11T13:28:49,42.805,6.029,CST-1368DR,4854,5809,12773,0.804,551
2022-03-11T13:31:51,42.805,6.029,CST-1368DR,4854,5802,12756,0.809,551
2022-03-11T13:34:52,42.805,6.029,CST-1368DR,4854,5804,12761,0.808,551
2022-03-11T13:37:54,42.805,6.029,CST-1368DR,4854,5806,12766,0.806,551
2022-03-11T13:40:55,42.805,6.029,CST-1368DR,4854,5806,12767,0.806,551
2022-03-11T13:43:57,42.805,6.029,CST-1368DR,4854,5802,12757,0.809,551
2022-03-11T13:46:59,42.805,6.029,CST-1368DR,4854,5800,12752,0.810,551
2022-03-11T13:50:00,42.805,6.029,CST-1368DR,4854,5804,12761,0.808,551
2022-03-11T13:53:02,42.805,6.029,CST-1368DR,4854,5803,12760,0.808,551
2022-03-11T13:56:03,42.805,6.029,CST-1368DR,4854,5804,12761,0.808,551
2022-03-11T13:59:05,42.805,6.029,CST-1368DR,4854,5799,12751,0.811,551
2022-03-11T14:02:06,42.805,6.029,CST-1368DR,4854,5803,12759,0.808,551
2022-03-11T14:05:08,42.805,6.029,CST-1368DR,4854,5805,12763,0.807,551
2022-03-11T14:08:10,42.805,6.029,CST-1368DR,4854,5802,12757,0.809,551
2022-03-11T14:11:11,42.805,6.029,CST-1368DR,4854,5803,12760,0.808,551
2022-03-11T14:14:13,42.805,6.029,CST-1368DR,4854,5802,12758,0.809,551
2022-03-11T14:17:14,42.805,6.029,CST-1368DR,4854,5805,12765,0.806,551
2022-03-11T14:20:16,42.805,6.029,CST-1368DR,4854,5805,12764,0.807,551
2022-03-11T14:23:18,42.805,6.029,CST-1368DR,4854,5802,12757,0.809,551
2022-03-11T14:26:19,42.805,6.029,CST-1368DR,4854,5803,12758,0.809,551
2022-03-11T14:29:21,42.805,6.029,CST-1368DR,4854,5801,12755,0.809,551
2022-03-11T14:32:22,42.805,6.029,CST-1368DR,4854,5800,12753,0.810,551
2022-03-11T14:35:24,42.805,6.029,CST-1368DR,4854,5805,12763,0.807,551
2022-03-11T14:38:25,42.805,6.029,CST-1368DR,4854,5802,12757,0.809,551
2022-03-11T14:41:27,42.805,6.029,CST-1368DR,4854,5801,12754,0.810,551
2022-03-11T14:44:29,42.805,6.029,CST-1368DR,4854,5806,12767,0.806,551
2022-03-11T14:47:30,42.805,6.029,CST-1368DR,4854,5806,12767,0.806,551
2022-03-11T14:50:32,42.805,6.029,CST-1368DR,4854,5801,12756,0.809,551
2022-03-11T14:53:33,42.805,6.029,CST-1368DR,4854,5795,12741,0.814,551
2022-03-11T14:56:35,42.805,6.029,CST-1368DR,4854,5798,12749,0.811,551
2022-03-11T14:59:36,42.805,6.029,CST-1368DR,4854,5800,12754,0.810,551
2022-03-11T15:02:38,42.805,6.029,CST-1368DR,4854,5804,12762,0.807,551
2022-03-11T15:05:40,42.805,6.029,CST-1368DR,4854,5804,12761,0.808,551
2022-03-11T15:08:41,42.805,6.029,CST-1368DR,4854,5805,12764,0.807,551
2022-03-11T15:11:43,42.805,6.029,CST-1368DR,4854,5802,12756,0.809,551
2022-03-11T15:14:44,42.805,6.029,CST-1368DR,4854,5799,12750,0.811,551
2022-03-11T15:17:46,42.805,6.029,CST-1368DR,4854,5802,12757,0.809,551
2022-03-11T15:20:48,42.805,6.029,CST-1368DR,4854,5805,12763,0.807,551
2022-03-11T15:23:49,42.805,6.029,CST-1368DR,4854,5800,12752,0.810,551
2022-03-11T15:26:51,42.805,6.029,CST-1368DR,4854,5804,12762,0.807,551
2022-03-11T15:29:52,42.805,6.029,CST-1368DR,4854,5803,12760,0.808,551
2022-03-11T15:32:54,42.805,6.029,CST-1368DR,4854,5803,12758,0.809,551
2022-03-11T15:35:55,42.805,6.029,CST-1368DR,4854,5792,12736,0.815,551
2022-03-11T15:38:57,42.805,6.029,CST-1368DR,4854,5800,12752,0.810,551
2022-03-11T15:41:59,42.805,6.029,CST-1368DR,4854,5801,12754,0.810,551
2022-03-11T15:45:00,42.805,6.029,CST-1368DR,4854,5797,12746,0.812,551
2022-03-11T15:48:02,42.805,6.029,CST-1368DR,4854,5799,12750,0.811,551
2022-03-11T15:51:03,42.805,6.029,CST-1368DR,4854,5799,12750,0.811,551
2022-03-11T15:54:05,42.805,6.029,CST-1368DR,4854,5800,12753,0.810,551
2022-03-11T15:57:06,42.805,6.029,CST-1368DR,4854,5798,12748,0.812,551
2022-03-11T16:00:08,42.805,6.029,CST-1368DR,4854,5799,12751,0.811,551
2022-03-11T16:03:10,42.805,6.029,CST-1368DR,4854,5799,12751,0.811,551
2022-03-11T16:06:11,42.805,6.029,CST-1368DR,4854,5803,12760,0.808,551
2022-03-11T16:09:13,42.805,6.029,CST-1368DR,4854,5802,12757,0.809,551
2022-03-11T16:12:14,42.805,6.029,CST-1368DR,4854,5797,12746,0.812,551
2022-03-11T16:15:16,42.805,6.029,CST-1368DR,4854,5800,12754,0.810,551
2022-03-11T16:18:18,42.805,6.029,CST-1368DR,4854,5803,12759,0.808,551
2022-03-11T16:21:19,42.805,6.029,CST-1368DR,4854,5798,12749,0.811,551
2022-03-11T16:24:21,42.805,6.029,CST-1368DR,4854,5802,12756,0.809,551
2022-03-11T16:27:22,42.805,6.029,CST-1368DR,4854,5801,12754,0.810,551
2022-03-11T16:30:24,42.805,6.029,CST-1368DR,4854,5804,12761,0.808,551
2022-03-11T16:33:25,42.805,6.029,CST-1368DR,4854,5802,12758,0.809,551
2022-03-11T16:36:27,42.805,6.029,CST-1368DR,4854,5801,12755,0.809,551
2022-03-11T16:39:29,42.805,6.029,CST-1368DR,4854,5800,12754,0.810,551
2022-03-11T16:42:30,42.805,6.029,CST-1368DR,4854,5802,12758,0.809,551
2022-03-11T16:45:32,42.805,6.029,CST-1368DR,4854,5800,12753,0.810,551
2022-03-11T16:48:33,42.805,6.029,CST-1368DR,4854,5801,12756,0.809,551
2022-03-11T16:51:35,42.805,6.029,CST-1368DR,4854,5801,12755,0.809,551